Home   Weather   Guatemala City   Past weeks

Flag for Guatemala Past Weather in Guatemala City, Guatemala — Yesterday and Last 2 Weeks

Now
81 °F

Scattered clouds.


Feels Like: 81 °F
Forecast: 62 / 82 °F
Wind: 14 mph from South

Location: Guatemala Aeropuertola Aurora

Current Time: Apr 29, 2017 at 1:47:46 pm

Latest Report: Apr 29, 2017 at 1:00 pm


Visibility: N/A

Pressure: 30.24 "Hg (25.40 "Hg at 1533m altitude)

Humidity: 51%

Dew Point: 61 °F

Location of Guatemala CityLocation

Past Weather in Guatemala City — Graph

°F

Guatemala City Temperature Yesterday

Maximum temperature yesterday: 84 °F (at 1:00 pm)
Minimum temperature yesterday: 63 °F (at 4:00 am)
Average temperature yesterday: 71 °F

High & Low Weather Summary for the Past Weeks

 TemperatureHumidityPressure
High84 °F (Apr 28, 1:00 pm)94% (Apr 15, 5:00 am)30.33 "Hg (Apr 15, 5:00 am)
Low57 °F (Apr 15, 5:00 am)37% (Apr 15, 2:00 pm)29.92 "Hg (Apr 17, 1:00 pm)
Average69 °F72%30.22 "Hg
* Reported Apr 14 12:00 pm — Apr 29 12:00 pm, Guatemala City, Weather by CustomWeather, © 2017

Note: Actual official high and low records may vary slightly from our data, if they occured in-between our weather recording intervals... More about our weather records

Advertising

Guatemala City Weather History for the Previous 24 Hours

Scroll right to see more
 ConditionsComfort  
Time TempWeatherWind HumidityBarometerVisibility
12:00 pm
Sat, Apr 29
79 °FScattered clouds.16 mph54%30.24 "HgN/A
11:00 am79 °FScattered clouds.16 mph51%30.27 "HgN/A
10:00 am79 °FPassing clouds.7 mph51%30.27 "HgN/A
9:00 am75 °FPassing clouds.9 mph57%30.27 "HgN/A
8:00 am72 °FPassing clouds.5 mph61%30.27 "HgN/A
7:00 am68 °FScattered clouds.7 mph73%30.27 "HgN/A
6:00 am64 °FScattered clouds.5 mph83%30.24 "HgN/A
5:00 am64 °FPassing clouds.5 mph83%30.24 "HgN/A
4:00 am64 °FPassing clouds.No wind88%30.24 "HgN/A
3:00 am64 °FPassing clouds.No wind83%30.21 "HgN/A
2:00 am66 °FClear.5 mph83%30.21 "Hg5 mi
1:00 am66 °FPassing clouds.5 mph83%30.24 "Hg5 mi
12:00 am66 °FPassing clouds.7 mph83%30.24 "Hg5 mi
11:00 pm
Fri, Apr 28
68 °FPassing clouds.12 mph78%30.27 "Hg5 mi
10:00 pm68 °FPassing clouds.12 mph73%30.27 "Hg4 mi
9:00 pm68 °FPassing clouds.12 mph83%30.24 "Hg3 mi
8:00 pm70 °FPartly cloudy.12 mph78%30.21 "Hg3 mi
7:00 pm70 °FPartly cloudy.12 mph78%30.21 "Hg3 mi
6:00 pm72 °FBroken clouds.16 mph78%30.18 "Hg3 mi
5:00 pm75 °FPartly sunny.14 mph69%30.15 "Hg4 mi
4:00 pm79 °FScattered clouds.14 mph58%30.15 "Hg5 mi
3:00 pm81 °FPassing clouds.14 mph51%30.15 "HgN/A
2:00 pm81 °FPassing clouds.18 mph51%30.15 "HgN/A
1:00 pm84 °FPassing clouds.16 mph40%30.18 "HgN/A
Weather by CustomWeather, © 2017

See weather overviewHow to use our weather pages